IGO1123 VOBL-VABB

Flight info

Callsign IGO1123
Flight time N/A
Altitude 38000
Route VAGPU7B VAGPU Q8 AGELA MOLGO2A
Aircraft A20N/M-SDE2E3FGHIRWXY/LB1

Departure

Time 2026-04-28 13:50
Airport Kempegowda International Airport Bengaluru (VOBL)

Arrival

Time N/A
Airport Chhatrapati Shivaji Maharaj International Airport (VABB)
Time Latitude Longitude Altitude Speed Heading
2026-04-28 13:20 13.20187 77.71078 3011 ft 0 kts 176°
2026-04-28 13:41 13.20194 77.71078 3011 ft 1 kts 176°
2026-04-28 13:41 13.20197 77.71077 3011 ft 2 kts 176°
2026-04-28 13:41 13.20212 77.71077 3011 ft 2 kts 182°
2026-04-28 13:41 13.20227 77.71079 3015 ft 2 kts 192°
2026-04-28 13:42 13.20233 77.71080 3011 ft 0 kts 188°
2026-04-28 13:42 13.20240 77.71081 3011 ft 1 kts 174°
2026-04-28 13:42 13.20248 77.71080 3013 ft 1 kts 158°
2026-04-28 13:42 13.20258 77.71075 3012 ft 2 kts 133°
2026-04-28 13:43 13.20264 77.71064 3016 ft 0 kts 91°
2026-04-28 13:44 13.20264 77.71088 3014 ft 7 kts 91°
2026-04-28 13:45 13.20260 77.71149 3011 ft 10 kts 92°
2026-04-28 13:45 13.20260 77.71228 3011 ft 12 kts 90°
2026-04-28 13:45 13.20261 77.71321 3011 ft 14 kts 90°
2026-04-28 13:45 13.20259 77.71424 3011 ft 15 kts 91°
2026-04-28 13:46 13.20259 77.71538 3011 ft 17 kts 89°
2026-04-28 13:46 13.20259 77.71663 3011 ft 18 kts 91°
2026-04-28 13:46 13.20283 77.71783 3013 ft 15 kts 30°
2026-04-28 13:46 13.20345 77.71785 3011 ft 14 kts
2026-04-28 13:47 13.20438 77.71847 3011 ft 14 kts 87°
2026-04-28 13:47 13.20437 77.71918 3011 ft 15 kts 91°
2026-04-28 13:47 13.20434 77.72073 3011 ft 17 kts 88°
2026-04-28 13:47 13.20480 77.72118 3011 ft 15 kts 14°
2026-04-28 13:48 13.20540 77.72192 3011 ft 13 kts 33°
2026-04-28 13:48 13.20573 77.72202 3011 ft 0 kts 359°
2026-04-28 13:48 13.20576 77.72202 3011 ft 1 kts 359°
2026-04-28 13:48 13.20593 77.72201 3015 ft 4 kts 359°
2026-04-28 13:49 13.20632 77.72201 3012 ft 9 kts 359°
2026-04-28 13:49 13.20692 77.72155 3011 ft 16 kts 276°
2026-04-28 13:49 13.20692 77.72004 3011 ft 35 kts 271°
2026-04-28 13:49 13.20697 77.71477 3011 ft 113 kts 270°
2026-04-28 13:50 13.20706 77.70440 3045 ft 171 kts 270°
2026-04-28 13:50 13.20718 77.69222 3781 ft 172 kts 270°
2026-04-28 13:50 13.20729 77.67954 4485 ft 183 kts 270°
2026-04-28 13:50 13.20745 77.66607 5206 ft 196 kts 271°
2026-04-28 13:51 13.20782 77.64900 5684 ft 222 kts 271°
2026-04-28 13:51 13.20823 77.63218 6021 ft 252 kts 274°
2026-04-28 13:51 13.21327 77.61412 6090 ft 274 kts 300°
2026-04-28 13:51 13.22616 77.59986 6090 ft 275 kts 327°
2026-04-28 13:52 13.24908 77.58695 6090 ft 275 kts 328°
2026-04-28 13:52 13.27736 77.56069 6088 ft 274 kts 308°
2026-04-28 13:52 13.30101 77.53039 6610 ft 276 kts 326°
2026-04-28 13:52 13.33810 77.52472 7412 ft 282 kts 19°
2026-04-28 13:53 13.37933 77.54954 8395 ft 286 kts 32°
2026-04-28 13:53 13.44851 77.59245 10013 ft 292 kts 30°
2026-04-28 13:53 13.52912 77.63168 11641 ft 345 kts
2026-04-28 13:53 13.59579 77.60426 12866 ft 350 kts 329°
2026-04-28 13:54 13.63807 77.58001 13658 ft 354 kts 332°
2026-04-28 13:54 13.68223 77.55695 14460 ft 359 kts 333°
2026-04-28 13:54 13.72746 77.53393 15266 ft 363 kts 333°
2026-04-28 13:54 13.77304 77.51072 16069 ft 367 kts 333°
2026-04-28 13:55 13.81845 77.48755 16853 ft 371 kts 333°
2026-04-28 13:55 13.86582 77.46337 17676 ft 376 kts 333°
2026-04-28 13:55 13.91246 77.43954 18477 ft 380 kts 333°
2026-04-28 13:55 13.96012 77.41518 19271 ft 385 kts 333°
2026-04-28 13:56 14.00864 77.39037 20074 ft 390 kts 333°
2026-04-28 13:56 14.05758 77.36533 20880 ft 395 kts 333°
2026-04-28 13:56 14.10658 77.34025 21674 ft 399 kts 333°
2026-04-28 13:56 14.15663 77.31461 22470 ft 405 kts 333°
2026-04-28 13:57 14.20754 77.28852 23268 ft 409 kts 333°
2026-04-28 13:57 14.25888 77.26220 24095 ft 415 kts 333°
2026-04-28 13:57 14.31083 77.23556 24885 ft 419 kts 333°
2026-04-28 13:57 14.37513 77.20255 25865 ft 426 kts 333°
2026-04-28 13:58 14.48259 77.14734 27465 ft 436 kts 333°
2026-04-28 13:58 14.59193 77.09140 29068 ft 440 kts 336°
2026-04-28 13:58 14.70767 77.04895 30669 ft 441 kts 340°
2026-04-28 13:58 14.81291 77.01024 32131 ft 438 kts 340°
2026-04-28 13:59 14.86943 76.98958 32917 ft 435 kts 340°
2026-04-28 13:59 14.94175 76.96312 33921 ft 429 kts 340°
2026-04-28 13:59 15.05266 76.92250 35497 ft 414 kts 340°
2026-04-28 13:59 15.12328 76.89662 36524 ft 400 kts 340°
2026-04-28 14:00 15.14954 76.88699 36700 ft 400 kts 340°
2026-04-28 14:00 15.17592 76.87731 36803 ft 402 kts 340°
2026-04-28 14:00 15.20232 76.86762 36913 ft 403 kts 340°
2026-04-28 14:00 15.22846 76.85802 37031 ft 404 kts 340°
2026-04-28 14:01 15.25503 76.84827 37140 ft 405 kts 340°
2026-04-28 14:01 15.28173 76.83846 37245 ft 406 kts 340°
2026-04-28 14:01 15.30840 76.82867 37349 ft 407 kts 340°
2026-04-28 14:01 15.33517 76.81883 37438 ft 408 kts 340°
2026-04-28 14:02 15.38850 76.79923 37649 ft 410 kts 340°
2026-04-28 14:02 15.44228 76.77945 37832 ft 412 kts 340°
2026-04-28 14:03 15.49648 76.75951 37993 ft 414 kts 340°
2026-04-28 14:03 15.55123 76.73935 38001 ft 421 kts 340°
2026-04-28 14:04 15.60683 76.71887 38001 ft 427 kts 340°
2026-04-28 14:04 15.66332 76.69748 37997 ft 434 kts 334°
2026-04-28 14:05 15.68921 76.68207 38000 ft 436 kts 323°
2026-04-28 14:05 15.71206 76.66138 38001 ft 439 kts 312°
2026-04-28 14:05 15.75034 76.61133 38000 ft 445 kts 308°
2026-04-28 14:06 15.78875 76.56036 38000 ft 451 kts 308°
2026-04-28 14:06 15.82742 76.50902 38000 ft 450 kts 308°
2026-04-28 14:07 15.86594 76.45783 38000 ft 450 kts 308°
2026-04-28 14:07 15.90453 76.40649 38000 ft 450 kts 308°
2026-04-28 14:08 15.94295 76.35533 38001 ft 451 kts 308°
2026-04-28 14:08 15.98147 76.30401 38002 ft 451 kts 308°
2026-04-28 14:09 16.02013 76.25246 38005 ft 451 kts 308°
2026-04-28 14:09 16.09734 76.14942 38012 ft 452 kts 308°
2026-04-28 14:10 16.19403 76.02016 38012 ft 452 kts 308°
2026-04-28 14:10 16.23254 75.96862 38008 ft 451 kts 308°
2026-04-28 14:11 16.27113 75.91694 38006 ft 451 kts 308°
2026-04-28 14:11 16.30964 75.86532 38003 ft 451 kts 308°
2026-04-28 14:12 16.34813 75.81369 38004 ft 451 kts 308°
2026-04-28 14:12 16.38660 75.76205 38002 ft 450 kts 307°
2026-04-28 14:13 16.42472 75.71084 37999 ft 450 kts 307°
2026-04-28 14:13 16.46317 75.65916 37998 ft 450 kts 307°
2026-04-28 14:14 16.50156 75.60751 37996 ft 450 kts 307°
2026-04-28 14:14 16.53959 75.55632 37871 ft 451 kts 307°
2026-04-28 14:15 16.55883 75.53040 37672 ft 450 kts 307°
2026-04-28 14:15 16.57803 75.50454 37473 ft 450 kts 307°
2026-04-28 14:15 16.59713 75.47879 37273 ft 449 kts 307°
2026-04-28 14:15 16.61633 75.45296 37074 ft 450 kts 308°
2026-04-28 14:16 16.63564 75.42737 36874 ft 450 kts 308°
2026-04-28 14:16 16.65511 75.40176 36678 ft 450 kts 308°
2026-04-28 14:16 16.67456 75.37618 36477 ft 449 kts 308°
2026-04-28 14:16 16.69374 75.35092 36281 ft 450 kts 308°
2026-04-28 14:17 16.71343 75.32495 36080 ft 450 kts 308°
2026-04-28 14:17 16.75569 75.26909 35650 ft 450 kts 308°
2026-04-28 14:17 16.83264 75.16722 34857 ft 452 kts 308°
2026-04-28 14:17 16.91084 75.06356 34056 ft 454 kts 308°
2026-04-28 14:18 16.95364 75.00677 33621 ft 454 kts 308°
2026-04-28 14:18 17.01592 74.92402 32880 ft 456 kts 308°
2026-04-28 14:18 17.09441 74.81960 31683 ft 459 kts 308°
2026-04-28 14:18 17.17353 74.71418 30484 ft 460 kts 308°
2026-04-28 14:19 17.25177 74.60978 29279 ft 450 kts 308°
2026-04-28 14:19 17.32728 74.50887 28096 ft 441 kts 308°
2026-04-28 14:19 17.40243 74.40828 26893 ft 433 kts 308°
2026-04-28 14:19 17.47605 74.30959 25685 ft 425 kts 308°
2026-04-28 14:20 17.54828 74.21263 24499 ft 417 kts 308°
2026-04-28 14:20 17.61886 74.11775 23292 ft 409 kts 308°
2026-04-28 14:20 17.68831 74.02426 22089 ft 402 kts 308°
2026-04-28 14:20 17.75650 73.93233 20887 ft 395 kts 308°
2026-04-28 14:21 17.82353 73.84185 19688 ft 388 kts 308°
2026-04-28 14:21 17.88873 73.75372 18501 ft 382 kts 307°
2026-04-28 14:21 17.95359 73.66591 17292 ft 377 kts 307°
2026-04-28 14:21 18.01696 73.58002 16099 ft 364 kts 307°
2026-04-28 14:22 18.07860 73.49637 14894 ft 358 kts 307°
2026-04-28 14:22 18.13906 73.41422 13692 ft 351 kts 307°
2026-04-28 14:22 18.21898 73.35933 12492 ft 347 kts 336°
2026-04-28 14:22 18.30043 73.32268 12001 ft 344 kts 336°
2026-04-28 14:23 18.34389 73.30318 12000 ft 344 kts 336°
2026-04-28 14:23 18.38790 73.28347 12000 ft 344 kts 336°